Regional Weather Roundup
Issued by NWS Wakefield, VA

Home | Current Version | Previous Version | Text Only | Print | Product List | Glossary Off
Versions: 1 2 3 4 5 6 7 8 9 10 11 12 13 14 15 16 17 18 19 20 21 22 23 24 25 26 27 28 29 30 31 32 33 34 35 36 37 38 39 40 41 42 43 44 45 46 47 48 49 50

951
ASUS41 KAKQ 191215
RWRAKQ

REGIONAL WEATHER ROUNDUP
NATIONAL WEATHER SERVICE WAKEFIELD VA
700 AM EST THU JAN 19 2017

Note: "fair" indicates few or no clouds below 12,000 feet with no
significant weather and/or obstructions to visibility. * = Denotes
station may not report precipitation (e.g., rain,snow,etc.),
thunder or fog.

VAZ042-051-052>054-056-191300-
NORTHERN VIRGINIA

CITY           SKY/WX    TMP DP  RH WIND       PRES   REMARKS
WASH NATIONAL  CLOUDY    46  37  71 N6        30.10R
DULLES         CLOUDY    43  35  73 NW3       30.09R
FORT BELVOIR   CLOUDY    41  35  76 CALM      30.10R
QUANTICO       CLOUDY    36  35  96 NW9       30.11R
FREDERICKSBRG* CLOUDY    33  33 100 SW3       30.10R
STAFFORD*      CLOUDY    32  32 100 CALM      30.14R
WARRENTON      CLOUDY    30  27  90 CALM      30.10R
CULPEPER*      PTCLDY    31  30  98 CALM      30.11R
MANASSAS*      CLOUDY   N/A N/A N/A S6        30.10
LEESBURG*      NOT AVBL
WINCHESTER     CLOUDY    39  34  81 SW5       30.08S
FRONT ROYAL*   PTSUNNY   34  32  93 S5        30.08R
LURAY*         FAIR      32  32 100 SW3       30.08S
$$

VAZ048-049-060>072-079>083-191300-
CENTRAL AND SOUTH CENTRAL VIRGINIA

CITY           SKY/WX    TMP DP  RH WIND       PRES   REMARKS
RICHMOND       CLOUDY    40  35  83 CALM      30.10R
CHESTERFIELD*  FAIR      34  18  51 CALM      30.12R
PETERSBURG*    MOCLDY    30  30 100 CALM      30.12R
HANOVER        CLOUDY    35  33  92 CALM      30.12R
TAPPAHANNOCK*  CLOUDY    34  34 100 CALM      30.10R
QUINTON*       FAIR      36  35  99 CALM      30.10R
CHARLOTTSVILLE CLOUDY    35  32  88 S3        30.08R
GORDONSVILLE*  FAIR      29  29 100 CALM      30.09R
ORANGE*          N/A     32  32 100 CALM      30.11R
LOUISA*        CLOUDY    34  32  93 CALM      30.09R
BUMPASS*       FAIR      33  33 100 CALM      30.10R
FARMVILLE*     CLOUDY    32  32 100 CALM      30.10R
CREWE*         FAIR      33  33 100 CALM      30.10S
FORT PICKETT*  FAIR      35  32  89 CALM      30.10R
CHASE CITY*    FAIR      33  32  96 CALM      30.10R
CLARKSVILLE*   FAIR      34  34 100 CALM      30.10R
SOUTH HILL*    CLOUDY    32  32 100 CALM      30.15S
LAWRENCEVILLE* FAIR      35  33  92 CALM      30.10R
EMPORIA*       PTCLDY    32  32 100 CALM      30.12R
$$

VAZ088>098-191300-
SOUTHEAST VIRGINIA

CITY           SKY/WX    TMP DP  RH WIND       PRES   REMARKS
NORFOLK        CLOUDY    43  37  79 N6        30.08R
VIRGINIA BEACH MOCLDY    38  35  89 N6        30.07S
NORFOLK NAVAL  CLOUDY    42  37  82 N6        30.10R
WEST POINT*    CLOUDY    32  31  96 CALM      30.12R
SALUDA*        FAIR      35  35 100 CALM      30.09R
NEWPORT NEWS   CLOUDY    40  35  83 N3        30.09R
LANGLEY AFB    CLOUDY    41  36  83 N5        30.08R
FORT EUSTIS    CLOUDY    41  34  76 NW5       30.07R
WILLIAMSBURG*  CLOUDY    39  36  87 CALM      30.10R
HR EXEC AP*    FAIR      34  30  86 CALM      30.09R
FRANKLIN*      MOCLDY    36  34  95 CALM      30.11R
US460-WAKEFLD  PTCLDY    35  34  96 CALM      30.10R
$$

VAZ020-022-025-037-045-191300-
WEST CENTRAL AND SOUTHWEST VIRGINIA

CITY           SKY/WX    TMP DP  RH WIND       PRES   REMARKS
STAUNTON*      CLOUDY    28  28  96 CALM      30.10S
WAYNESBORO*    FAIR      35  33  91 CALM      30.07S
HOT SPRINGS VA FOG       34  34 100 NW6       30.01S VSB 1
LYNCHBURG      CLOUDY    32  31  96 CALM      30.10R
DANVILLE       CLOUDY    34  34 100 CALM      30.10R
SOUTH BOSTON*  FAIR      33  32  97 CALM      30.12R
MARTINSVILLE   CLOUDY    29  28  95 CALM      30.12R
ROANOKE        PTCLDY    39  36  89 NE10      30.10S
BLACKSBURG     CLOUDY    34  34 100 CALM      30.11R
DUBLIN*        CLOUDY    33  32  98 CALM      30.10R
MARION*        CLOUDY    37  37  97 CALM      30.10S
HILLSVILLE*    CLOUDY    40  36  84 CALM      30.07R
RICHLANDS*     FAIR     N/A N/A N/A CALM      30.08R
WISE*          MOCLDY    41  41 100 SW3       30.08R
ABINGDON*      PTCLDY    39  38  96 CALM      30.08S
$$

MDZ021>025-VAZ099-100-191300-
SOUTHERN MARYLAND AND THE DELMARVA PENINSULA

CITY           SKY/WX    TMP DP  RH WIND       PRES   REMARKS
PATUXENT RIVER CLOUDY    38  35  89 W5        30.08S
BAY BRIDGE APT CLOUDY    41  36  81 CALM      30.09R
LEONARDTOWN    PTCLDY    36  32  87 W3        30.11R
DOVER          CLOUDY    44  44 100 NW5       30.05S
GEORGETOWN     CLOUDY    46  38  73 NW3       30.07R
EASTON         CLOUDY    45  36  70 N3        30.10F
CAMBRIDGE      CLOUDY    41  36  81 CALM      30.07R
SALISBURY      CLOUDY    45  37  73 N5        30.06S
OCEAN CITY     CLOUDY    43  41  93 CALM      30.06S
WALLOPS ISLAND CLOUDY    41  41 100 CALM      30.07S
ACCOMACK*      PTCLDY    38  37  94 CALM      30.07F
$$

NCZ012>017-030>032-191300-
NORTH CENTRAL AND EASTERN NORTH CAROLINA

CITY           SKY/WX    TMP DP  RH WIND       PRES   REMARKS
ROANOKE RAPIDS FAIR      36  36 100 CALM      30.11R
RALEIGH        PTCLDY    39  35  86 NE3       30.10R
ELIZABETH CITY PTCLDY    42  39  89 N8        30.09R
AHOSKIE*         N/A     35  34  96 CALM      30.11S
EDENTON*       PTCLDY    41  38  92 CALM      30.11R
CURRITUCK*     PTCLDY    41  41  97 N3        30.09R
KILL DEVIL HLS NOT AVBL
MANTEO         PTCLDY    44  44 100 NE7       30.07S
CAPE HATTERAS  CLEAR     48  45  89 VRB5      30.06R FOG
TARBORO*       NOT AVBL
GOLDSBORO      CLEAR     37  37 100 CALM      30.07R
WASHINGTON     CLEAR     36  35  99 CALM        N/A
GREENVILLE     SNOW      36  36 100 CALM      30.11R VSB 1/4
NEW BERN       CLEAR     37  36  96 CALM      30.10S FOG
WILMINGTON     CLEAR     40  40 100 NE3       30.07S
$$

VAZ048-191300-
ELSEWHERE

CITY           SKY/WX    TMP DP  RH WIND       PRES   REMARKS
HARRISBURG PA  CLOUDY    40  36  86 CALM      30.06R
BALTIMORE      CLOUDY    43  36  76 W6        30.08R
ANNAPOLIS      CLOUDY    45  36  70 W3        30.08R
ANDREWS AFB    MOCLDY    42  35  76 NW8       30.08R
PHILADELPHIA   MOCLDY    45  36  70 W8        30.06S
HENDERSON NC   CLEAR     32  31  96 CALM      30.10R
GREENSBORO     CLOUDY    38  35  89 CALM      30.08R
ROCKY MOUNT    CLEAR     36  36 100 NE5       30.09R
$$

VAZ100-191300-
MARINE

STATION/POSITION TIME  TEMP    WIND        PRES    WAVE   SWELL
                       AIR SEA DIR/SP/G            HT/PER HT/PER
                 (UTC) (F)     (DEG/KT/KT) (MB)    (FT/S) (FT/S)
CAPE MAY NJ      1142   41 41  310/  1/  3 1017.4F
LEWES DE         1142   44 42  310/  5/  5 1017.6F
OCEAN-CITY-INLET 1142   43 43   10/  2/  2 1018.3R
WACHAPREAGUE VA  1142   41 47  300/  1/  2 1018.3S
THOMAS POINT MD  1200   44 39  290/  4/  4   N/A
GOOSES REEF MD   1150   41     340/  4/  4 1019.2R
COVE POINT MD    1142   43     340/  5/  7 1019.2R
SOLOMONS ISLAND  1142   40 41  280/  1/  2   N/A
BISHOPS HEAD MD  1142   43 44  300/  4/  5 1018.6R
PINEY POINT MD   1136          340/  4/  4   N/A
POTOMAC MD       1150   41     300/  2/  4 1017.7R
CAMBRIDGE MD     1142   44 40  280/  1/  2 1017.6R
LEWISETTA VA     1142   42 43  340/  4/  5 1018.4R
RAPPAHANNOCK LGT 1136          350/  8/  9 1018.9F
STINGRAY PT      1150   41     360/  8/  8 1018.8S
YORK RVR RNG VA  1142   43     360/  7/  8 1017.7F
YORKTOWN VA      1142   42 43  300/  4/  4 1018.3R
JAMESTOWN VA     1150   42     320/  4/  6   N/A
DOMINION TERM VA 1142   43      10/  5/  8 1018.7R
KIPTOPEKE VA     1136      44   10/  4/  6   N/A
CHES BAY BRIDGE  1142   43 45   10/  7/  9 1018.2S
CAPE HENRY VA    1142   44     360/  9/ 11   N/A
WILLOUBY STN VA  1142   43     360/  7/  8 1019.3S
S CRANEY ISL VA  1142   44     360/  8/  9 1018.3S
CAPE HENRY BUOY  1142      48                N/A     4/ 6
OFFSHORE WE BUOY 1151      49                N/A     4/ 7
64NM E OF VA BCH 1150   50 55   10/ 19/ 25 1017.2R   5/ 7   3/ 7
DUCK PIER NC     1142   44 45  360/  9/ 10 1017.5F
44100 DUCK FRF   1135      47                N/A     5/ 7
44056 DUCK FRF   1130      45                N/A     4/ 7
OREGON INLET NC  1142   44 50  350/  7/  9 1017.9S
HATTERAS NC      1142   48 55  360/ 11/ 13 1017.6R
DIAMOND SHLS NC  1150   53 75   20/ 19/ 23 1016.8R   6/10   3/10
CAPE LOOKOUT NC  1100   47     350/  7/  9 1017.5R
$$




USA.gov is the U.S. government's official web portal to all federal, state and local government web resources and services.